DL1ONI-13 Weather Reports


Display with metric or nautical units.
time (UTC)temp
F
wind
direction
speed
MPH
gust
MPH
rain 1hr
in
rain 24hr
in
rain mn
in
humidity
%
barometer
mb
20260505192025 61 261 2.0 3.0 0.00 0.06 0.06 61 1011.7
20260505191016 61 275 1.0 5.0 0.00 0.06 0.06 61 1011.4
20260505190016 61 333 1.0 1.0 0.00 0.06 0.06 61 1011.4
20260505185017 0 0.0 0.0 0.00 0.06 0.06
20260505184017 62 0.0 0.0 0.00 0.06 0.06 60 1011.4
20260505183017 62 248 3.0 4.0 0.00 0.06 0.06 60 1011.0
20260505182037 63 264 3.0 4.0 0.00 0.06 0.06 60 1011.1
20260505181017 63 293 3.0 4.0 0.00 0.06 0.06 59 1011.1
20260505180017 63 265 4.0 4.0 0.00 0.06 0.06 59 1011.2
20260505175038 64 282 4.0 6.0 0.00 0.06 0.06 59 1011.0
20260505174020 64 253 3.0 4.0 0.00 0.06 0.06 59 1011.0
20260505173020 63 278 3.0 3.0 0.00 0.06 0.06 59 1011.0
20260505172019 64 247 5.0 6.0 0.00 0.06 0.06 58 1011.0
20260505171040 64 256 5.0 6.0 0.00 0.06 0.06 58 1011.1
20260505170040 64 256 4.0 9.0 0.00 0.06 0.06 57 1010.8
20260505165020 64 248 4.0 7.0 0.00 0.06 0.06 57 1010.8
20260505164020 65 279 5.0 6.0 0.00 0.06 0.06 56 1010.9
20260505163019 65 279 5.0 8.0 0.00 0.06 0.06 55 1010.8
20260505162040 65 293 5.0 5.0 0.00 0.06 0.06 55 1010.8
20260505161021 65 293 6.0 7.0 0.00 0.06 0.06 55 1010.8
20260505153020 66 270 4.0 5.0 0.06 0.06 0.06 58 1010.5
20260505152020 66 296 5.0 7.0 0.06 0.06 0.06 60 1010.5
20260505151040 67 307 3.0 9.0 0.06 0.06 0.06 58 1011.0
20260505125020 81 135 3.0 4.0 0.00 0.00 0.00 34 1012.2
20260505124040 80 174 2.0 8.0 0.00 0.00 0.00 35 1012.2
20260505123021 79 105 1.0 4.0 0.00 0.00 0.00 34 1012.4
20260505122042 79 81 2.0 2.0 0.00 0.00 0.00 34 1012.4
20260505121023 80 62 1.0 3.0 0.00 0.00 0.00 35 1012.6
20260505120043 79 206 2.0 4.0 0.00 0.00 0.00 35 1012.6
20260505115024 78 131 1.0 5.0 0.00 0.00 0.00 37 1012.8
20260505114025 77 44 2.0 2.0 0.00 0.00 0.00 36 1012.7
20260505113025 76 342 2.0 5.0 0.00 0.00 0.00 37 1013.0
20260505112025 75 57 1.0 2.0 0.00 0.00 0.00 36 1013.0
20260505111016 75 32 2.0 4.0 0.00 0.00 0.00 36 1013.1
20260505102016 73 63 2.0 2.0 0.00 0.00 0.00 43 1013.5
20260505101017 73 21 1.0 4.0 0.00 0.00 0.00 44 1013.7
20260505100018 73 333 2.0 3.0 0.00 0.00 0.00 45 1013.8
20260505095018 73 234 2.0 6.0 0.00 0.00 0.00 46 1013.8
20260505094018 72 175 1.0 2.0 0.00 0.00 0.00 47 1013.7
20260505093019 71 218 1.0 5.0 0.00 0.00 0.00 47 1014.2
20260505092019 71 98 1.0 2.0 0.00 0.00 0.00 47 1014.2
20260505091039 71 160 1.0 2.0 0.00 0.00 0.00 48 1014.6
20260505090040 71 212 2.0 2.0 0.00 0.00 0.00 48 1014.6
20260505085020 70 176 2.0 4.0 0.00 0.00 0.00 49 1014.4
20260505084020 70 243 2.0 4.0 0.00 0.00 0.00 51 1014.4
20260505083041 69 170 1.0 5.0 0.00 0.00 0.00 52 1014.7
20260505082021 68 155 2.0 3.0 0.00 0.00 0.00 53 1014.7
20260505081042 67 229 1.0 3.0 0.00 0.00 0.00 53 1014.6
20260505080042 66 55 1.0 2.0 0.00 0.00 0.00 53 1014.6
20260505075023 66 80 1.0 3.0 0.00 0.00 0.00 53 1014.8
20260505074024 65 5 1.0 2.0 0.00 0.00 0.00 53 1014.8
20260505073025 65 17 0.0 3.0 0.00 0.00 0.00 54 1014.2
20260505072023 65 86 0.0 1.0 0.00 0.00 0.00 55 1014.2
20260505071023 64 3 1.0 3.0 0.00 0.00 0.00 55 1013.4
20260505070023 64 240 1.0 2.0 0.00 0.00 0.00 57 1013.5
20260505065023 63 258 1.0 3.0 0.00 0.00 0.00 57 1013.7
20260505064024 63 279 1.0 3.0 0.00 0.00 0.00 57 1013.7
20260505063023 63 264 2.0 3.0 0.00 0.00 0.00 58 1014.2
20260505062024 63 278 1.0 3.0 0.00 0.00 0.00 59 1014.2
20260505061024 63 260 1.0 2.0 0.00 0.00 0.00 60 1013.9
20260505060024 63 303 2.0 2.0 0.00 0.00 0.00 60 1014.0
20260505055025 63 246 0.0 1.0 0.00 0.00 0.00 61 1013.9
20260505054025 64 315 0.0 0.0 0.00 0.00 0.00 59 1014.0
20260505053025 65 50 0.0 2.0 0.00 0.00 0.00 59 1014.2
20260505052024 66 0.0 0.0 0.00 0.00 0.00 59 1014.2
20260505051025 68 0.0 0.0 0.00 0.00 0.00 61 1014.0
20260505041025 53 0.0 0.0 0.00 0.00 0.00 72 1013.6
20260505040026 53 0.0 0.0 0.00 0.00 0.00 72 1013.6
20260505035016 53 0.0 0.0 0.00 0.00 0.00 72 1013.8
20260505034025 54 156 0.0 0.0 0.00 0.00 0.00 73 1013.8
20260505033024 54 180 0.0 0.0 0.00 0.00 0.00 73 1014.8
20260505032043 54 225 0.0 2.0 0.00 0.00 0.00 72 1014.8
20260505031022 54 234 0.0 2.0 0.00 0.00 0.00 72 1014.8
20260505030042 54 262 0.0 0.0 0.00 0.00 0.00 71 1014.8
20260505025022 55 168 0.0 2.0 0.00 0.00 0.00 70 1014.9
20260505024043 55 0.0 0.0 0.00 0.00 0.00 70 1014.9
20260505023024 55 0.0 0.0 0.00 0.00 0.00 69 1015.1
20260505022045 56 0.0 0.0 0.00 0.00 0.00 69 1015.1
20260505021025 56 0.0 0.0 0.00 0.00 0.00 68 1015.2
20260505020025 57 0.0 0.0 0.00 0.00 0.00 67 1015.3
20260505015024 57 0.0 0.0 0.00 0.00 0.00 66 1015.0
20260505014026 58 135 0.0 0.0 0.00 0.00 0.00 65 1015.0
20260505013025 58 180 0.0 2.0 0.00 0.00 0.00 65 1015.4
20260505012025 59 191 1.0 1.0 0.00 0.00 0.00 65 1015.5
20260505011024 59 239 1.0 2.0 0.00 0.00 0.00 65 1015.7
20260505010025 59 288 1.0 1.0 0.00 0.00 0.00 65 1015.7
20260505005024 59 225 0.0 2.0 0.00 0.00 0.00 64 1015.7
20260505004024 60 0.0 0.0 0.00 0.00 0.00 63 1015.7
20260505003024 60 315 0.0 0.0 0.00 0.00 0.00 63 1015.9
20260505002025 61 0.0 0.0 0.00 0.00 0.00 63 1015.9
20260505001024 61 315 0.0 0.0 0.00 0.00 0.00 62 1015.9
20260505000024 61 68 1.0 1.0 0.00 0.00 0.00 62 1015.9
20260504235024 61 308 1.0 2.0 0.00 0.00 0.00 60 1016.3
20260504234144 62 298 1.0 3.0 0.00 0.00 0.00 61 1016.3
20260504233044 62 5 1.0 2.0 0.00 0.00 0.00 61 1016.9
20260504232024 62 303 1.0 2.0 0.00 0.00 0.00 61 1016.9
20260504231025 62 310 2.0 2.0 0.00 0.00 0.00 61 1017.2
20260504230046 62 332 0.0 2.0 0.00 0.00 0.00 60 1017.1
20260504225025 62 72 0.0 0.0 0.00 0.00 0.00 61 1017.0
20260504224024 62 275 1.0 1.0 0.00 0.00 0.00 60 1017.0
20260504223024 63 318 1.0 3.0 0.00 0.00 0.00 59 1017.7
20260504222025 63 330 1.0 2.0 0.00 0.00 0.00 59 1017.7
20260504221025 63 269 1.0 4.0 0.00 0.00 0.00 57 1017.9
20260504220025 64 257 1.0 1.0 0.00 0.00 0.00 57 1017.9
20260504215016 64 274 0.0 1.0 0.00 0.00 0.00 56 1018.3
20260504214017 64 213 1.0 2.0 0.00 0.00 0.00 56 1018.3
20260504213037 65 235 3.0 4.0 0.00 0.00 0.00 55 1018.3
20260504212018 66 210 5.0 6.0 0.00 0.00 0.00 49 1018.3
20260504211017 67 199 4.0 11.0 0.00 0.00 0.00 46 1017.8
20260504210017 68 225 3.0 8.0 0.00 0.00 0.00 42 1017.9
20260504205019 68 277 1.0 5.0 0.00 0.00 0.00 37 1017.7
20260504204020 68 279 1.0 2.0 0.00 0.00 0.00 37 1017.7
20260504203019 68 279 1.0 4.0 0.00 0.00 0.00 37 1017.1
20260504202019 68 289 2.0 3.0 0.00 0.00 0.00 36 1017.1
20260504201019 68 270 1.0 4.0 0.00 0.00 0.00 36 1015.9
20260504200040 68 16 1.0 3.0 0.00 0.00 0.00 35 1015.9
20260504195020 68 51 1.0 3.0 0.00 0.00 0.00 35 1015.7
20260504194020 69 322 0.0 1.0 0.00 0.00 0.00 34 1015.7
20260504193021 69 0.0 0.0 0.00 0.00 0.00 34 1015.8